| time (UTC) | temp F | wind direction | speed MPH | gust MPH | rain 1hr in | rain 24hr in | rain mn in | humidity % | barometer mb |
| 20260905214345 | 88 | 2 | 5.0 | 14.0 | 0.00 | 0.00 | 0.00 | 71 | 1010.6 |
| 20260905214244 | 89 | 28 | 3.0 | 14.0 | 0.00 | 0.00 | 0.00 | 71 | 1010.5 |
| 20260905213343 | 89 | 321 | 2.0 | 14.0 | 0.00 | 0.00 | 0.00 | 71 | 1010.3 |
| 20260905212345 | 89 | 17 | 2.0 | 14.0 | 0.00 | 0.00 | 0.00 | 71 | 1010.2 |
| 20260905212244 | 89 | 69 | 1.0 | 14.0 | 0.00 | 0.00 | 0.00 | 70 | 1010.2 |
| 20260905211346 | 90 | 30 | 2.0 | 14.0 | 0.00 | 0.00 | 0.00 | 71 | 1010.1 |
| 20260905211245 | 90 | 345 | 2.0 | 14.0 | 0.00 | 0.00 | 0.00 | 72 | 1010.1 |
| 20260905210344 | 90 | 18 | 1.0 | 14.0 | 0.00 | 0.00 | 0.00 | 72 | 1010.1 |
| 20260905210245 | 90 | 293 | 1.0 | 14.0 | 0.00 | 0.00 | 0.00 | 71 | 1010.1 |
| 20260905205345 | 91 | 343 | 2.0 | 14.0 | 0.00 | 0.00 | 0.00 | 72 | 1010.1 |
| 20260905205244 | 91 | 13 | 3.0 | 14.0 | 0.00 | 0.00 | 0.00 | 71 | 1010.2 |
| 20260905204343 | 90 | 32 | 1.0 | 14.0 | 0.00 | 0.00 | 0.00 | 71 | 1010.3 |
| 20260905204244 | 90 | 338 | 2.0 | 14.0 | 0.00 | 0.00 | 0.00 | 71 | 1010.3 |
| 20260905203343 | 90 | 316 | 1.0 | 14.0 | 0.00 | 0.00 | 0.00 | 69 | 1010.2 |
| 20260905203244 | 91 | 295 | 2.0 | 14.0 | 0.00 | 0.00 | 0.00 | 69 | 1010.2 |
| 20260905202344 | 91 | 343 | 1.0 | 14.0 | 0.00 | 0.00 | 0.00 | 68 | 1010.2 |
| 20260905202243 | 91 | 327 | 2.0 | 14.0 | 0.00 | 0.00 | 0.00 | 67 | 1010.2 |
| 20260905201344 | 91 | 318 | 2.0 | 14.0 | 0.00 | 0.00 | 0.00 | 68 | 1010.2 |
| 20260905201245 | 91 | 1 | 3.0 | 14.0 | 0.00 | 0.00 | 0.00 | 68 | 1010.3 |
| 20260905200344 | 90 | 54 | 2.0 | 14.0 | 0.00 | 0.00 | 0.00 | 70 | 1010.3 |
| 20260905200243 | 90 | 356 | 2.0 | 14.0 | 0.00 | 0.00 | 0.00 | 72 | 1010.3 |
| 20260905195345 | 89 | 34 | 1.0 | 14.0 | 0.00 | 0.00 | 0.00 | 72 | 1010.3 |
| 20260905195244 | 89 | 34 | 1.0 | 14.0 | 0.00 | 0.00 | 0.00 | 71 | 1010.3 |
| 20260905194345 | 88 | 15 | 1.0 | 14.0 | 0.00 | 0.00 | 0.00 | 70 | 1010.5 |
| 20260905194245 | 88 | 352 | 2.0 | 14.0 | 0.00 | 0.00 | 0.00 | 70 | 1010.5 |
| 20260905193345 | 90 | 53 | 5.0 | 14.0 | 0.00 | 0.00 | 0.00 | 68 | 1010.9 |
| 20260905193244 | 90 | 53 | 3.0 | 14.0 | 0.00 | 0.00 | 0.00 | 68 | 1010.9 |
| 20260905192343 | 91 | 302 | 2.0 | 14.0 | 0.00 | 0.00 | 0.00 | 70 | 1011.1 |
| 20260905192244 | 91 | 3 | 1.0 | 14.0 | 0.00 | 0.00 | 0.00 | 70 | 1011.1 |
| 20260905191345 | 91 | 333 | 1.0 | 14.0 | 0.00 | 0.00 | 0.00 | 67 | 1011.1 |
| 20260905191245 | 91 | 344 | 1.0 | 14.0 | 0.00 | 0.00 | 0.00 | 67 | 1011.1 |
| 20260905190344 | 92 | 276 | 2.0 | 14.0 | 0.00 | 0.00 | 0.00 | 66 | 1010.8 |
| 20260905190245 | 92 | 310 | 3.0 | 14.0 | 0.00 | 0.00 | 0.00 | 66 | 1010.9 |
| 20260905185344 | 93 | 353 | 3.0 | 14.0 | 0.00 | 0.00 | 0.00 | 64 | 1011.1 |
| 20260905185244 | 93 | 318 | 5.0 | 14.0 | 0.00 | 0.00 | 0.00 | 64 | 1011.2 |
| 20260905184345 | 92 | 46 | 1.0 | 14.0 | 0.00 | 0.00 | 0.00 | 68 | 1011.1 |
| 20260905184244 | 92 | 352 | 1.0 | 14.0 | 0.00 | 0.00 | 0.00 | 67 | 1011.2 |
| 20260905183344 | 91 | 192 | 1.0 | 14.0 | 0.00 | 0.00 | 0.00 | 67 | 1011.2 |
| 20260905183244 | 91 | 222 | 1.0 | 14.0 | 0.00 | 0.00 | 0.00 | 66 | 1011.3 |
| 20260905182343 | 91 | 329 | 2.0 | 14.0 | 0.00 | 0.00 | 0.00 | 67 | 1011.6 |
| 20260905182244 | 91 | 342 | 1.0 | 14.0 | 0.00 | 0.00 | 0.00 | 68 | 1011.6 |
| 20260905181344 | 90 | 176 | 1.0 | 14.0 | 0.00 | 0.00 | 0.00 | 68 | 1011.6 |
| 20260905181245 | 90 | 29 | 0.0 | 14.0 | 0.00 | 0.00 | 0.00 | 69 | 1011.7 |
| 20260905180343 | 90 | 206 | 1.0 | 14.0 | 0.00 | 0.00 | 0.00 | 70 | 1011.7 |
| 20260905180243 | 90 | 217 | 1.0 | 14.0 | 0.00 | 0.00 | 0.00 | 69 | 1011.8 |
| 20260905175344 | 90 | 312 | 1.0 | 14.0 | 0.00 | 0.00 | 0.00 | 68 | 1011.9 |
| 20260905175245 | 90 | 325 | 2.0 | 14.0 | 0.00 | 0.00 | 0.00 | 67 | 1012.0 |
| 20260905174343 | 90 | 331 | 1.0 | 14.0 | 0.00 | 0.00 | 0.00 | 67 | 1012.1 |
| 20260905173345 | 89 | 236 | 1.0 | 14.0 | 0.00 | 0.00 | 0.00 | 69 | 1012.2 |
| 20260905173243 | 89 | 245 | 1.0 | 14.0 | 0.00 | 0.00 | 0.00 | 68 | 1012.2 |
| 20260905172343 | 89 | 274 | 1.0 | 14.0 | 0.00 | 0.00 | 0.00 | 69 | 1012.3 |
| 20260905172244 | 89 | 320 | 0.0 | 14.0 | 0.00 | 0.00 | 0.00 | 68 | 1012.3 |
| 20260905171345 | 88 | 253 | 0.0 | 14.0 | 0.00 | 0.00 | 0.00 | 68 | 1012.5 |
| 20260905171244 | 88 | 231 | 1.0 | 14.0 | 0.00 | 0.00 | 0.00 | 69 | 1012.6 |
| 20260905170345 | 88 | 136 | 3.0 | 14.0 | 0.00 | 0.00 | 0.00 | 67 | 1012.5 |
| 20260905165344 | 88 | 199 | 1.0 | 14.0 | 0.00 | 0.00 | 0.00 | 69 | 1012.7 |
| 20260905165243 | 88 | 218 | 1.0 | 14.0 | 0.00 | 0.00 | 0.00 | 68 | 1012.7 |
| 20260905164343 | 87 | 205 | 1.0 | 14.0 | 0.00 | 0.00 | 0.00 | 68 | 1012.7 |
| 20260905164243 | 87 | 180 | 2.0 | 14.0 | 0.00 | 0.00 | 0.00 | 67 | 1012.8 |
| 20260905163345 | 87 | 187 | 1.0 | 14.0 | 0.00 | 0.00 | 0.00 | 68 | 1012.7 |
| 20260905163245 | 87 | 173 | 1.0 | 14.0 | 0.00 | 0.00 | 0.00 | 68 | 1012.7 |
| 20260905162344 | 87 | 165 | 1.0 | 14.0 | 0.00 | 0.00 | 0.00 | 70 | 1012.7 |
| 20260905161344 | 86 | 114 | 0.0 | 14.0 | 0.00 | 0.00 | 0.00 | 71 | 1012.7 |
| 20260905161244 | 86 | 150 | 1.0 | 14.0 | 0.00 | 0.00 | 0.00 | 70 | 1012.7 |
| 20260905160345 | 85 | 200 | 1.0 | 14.0 | 0.00 | 0.00 | 0.00 | 72 | 1012.7 |
| 20260905155346 | 85 | 176 | 1.0 | 14.0 | 0.00 | 0.00 | 0.00 | 72 | 1012.7 |
| 20260905155245 | 85 | 175 | 1.0 | 14.0 | 0.00 | 0.00 | 0.00 | 73 | 1012.8 |
| 20260905154345 | 84 | 183 | 2.0 | 14.0 | 0.00 | 0.00 | 0.00 | 73 | 1012.7 |
| 20260905154244 | 83 | 205 | 1.0 | 14.0 | 0.00 | 0.00 | 0.00 | 73 | 1012.8 |
| 20260905153344 | 83 | 182 | 2.0 | 14.0 | 0.00 | 0.00 | 0.00 | 74 | 1012.8 |
| 20260905153244 | 83 | 174 | 2.0 | 14.0 | 0.00 | 0.00 | 0.00 | 73 | 1012.8 |
| 20260905152344 | 82 | 215 | 1.0 | 14.0 | 0.00 | 0.00 | 0.00 | 75 | 1012.8 |
| 20260905152244 | 82 | 225 | 1.0 | 14.0 | 0.00 | 0.00 | 0.00 | 76 | 1012.8 |
| 20260905151343 | 81 | 173 | 2.0 | 14.0 | 0.00 | 0.00 | 0.00 | 77 | 1012.7 |
| 20260905150344 | 80 | 221 | 3.0 | 14.0 | 0.00 | 0.00 | 0.00 | 77 | 1012.6 |
| 20260905150244 | 80 | 197 | 3.0 | 14.0 | 0.00 | 0.00 | 0.00 | 77 | 1012.6 |
| 20260905145343 | 80 | 167 | 2.0 | 13.0 | 0.00 | 0.00 | 0.00 | 79 | 1012.8 |
| 20260905145243 | 80 | 177 | 2.0 | 13.0 | 0.00 | 0.00 | 0.00 | 79 | 1012.9 |
| 20260905144345 | 79 | 168 | 1.0 | 13.0 | 0.00 | 0.00 | 0.00 | 81 | 1013.0 |
| 20260905143345 | 79 | 174 | 2.0 | 13.0 | 0.00 | 0.00 | 0.00 | 82 | 1012.9 |
| 20260905142344 | 79 | 168 | 1.0 | 13.0 | 0.00 | 0.00 | 0.00 | 82 | 1012.8 |
| 20260905142243 | 79 | 173 | 1.0 | 13.0 | 0.00 | 0.00 | 0.00 | 82 | 1012.8 |
| 20260905141344 | 79 | 175 | 2.0 | 13.0 | 0.00 | 0.00 | 0.00 | 83 | 1012.6 |
| 20260905140343 | 78 | 192 | 1.0 | 13.0 | 0.00 | 0.00 | 0.00 | 81 | 1012.7 |
| 20260905140244 | 78 | 196 | 2.0 | 13.0 | 0.00 | 0.00 | 0.00 | 80 | 1012.6 |
| 20260905135346 | 78 | 204 | 1.0 | 13.0 | 0.00 | 0.00 | 0.00 | 81 | 1012.5 |
| 20260905135244 | 78 | 184 | 2.0 | 13.0 | 0.00 | 0.00 | 0.00 | 81 | 1012.5 |
| 20260905134344 | 78 | 170 | 5.0 | 13.0 | 0.00 | 0.00 | 0.00 | 81 | 1012.4 |
| 20260905134244 | 78 | 193 | 3.0 | 13.0 | 0.00 | 0.00 | 0.00 | 82 | 1012.4 |
| 20260905133344 | 78 | 183 | 5.0 | 13.0 | 0.00 | 0.00 | 0.00 | 83 | 1012.4 |
| 20260905133243 | 78 | 182 | 5.0 | 13.0 | 0.00 | 0.00 | 0.00 | 84 | 1012.5 |
| 20260905132345 | 77 | 154 | 3.0 | 13.0 | 0.00 | 0.00 | 0.00 | 83 | 1012.7 |
| 20260905132244 | 78 | 157 | 2.0 | 13.0 | 0.00 | 0.00 | 0.00 | 83 | 1012.7 |
| 20260905131344 | 78 | 143 | 2.0 | 13.0 | 0.00 | 0.00 | 0.00 | 81 | 1012.7 |
| 20260905131244 | 78 | 175 | 3.0 | 13.0 | 0.00 | 0.00 | 0.00 | 81 | 1012.7 |
| 20260905130343 | 78 | 170 | 1.0 | 13.0 | 0.00 | 0.00 | 0.00 | 82 | 1012.7 |
| 20260905130244 | 78 | 183 | 2.0 | 13.0 | 0.00 | 0.00 | 0.00 | 82 | 1012.7 |
| 20260905125343 | 77 | 177 | 2.0 | 13.0 | 0.00 | 0.00 | 0.00 | 83 | 1012.7 |
| 20260905124344 | 77 | 186 | 2.0 | 13.0 | 0.00 | 0.00 | 0.00 | 87 | 1012.7 |
| 20260905124244 | 77 | 185 | 5.0 | 13.0 | 0.00 | 0.00 | 0.00 | 87 | 1012.6 |
| 20260905123344 | 77 | 161 | 5.0 | 13.0 | 0.00 | 0.00 | 0.00 | 89 | 1012.6 |
| 20260905122343 | 77 | 155 | 2.0 | 8.0 | 0.00 | 0.00 | 0.00 | 91 | 1012.5 |
| 20260905121344 | 76 | 102 | 1.0 | 7.0 | 0.00 | 0.00 | 0.00 | 94 | 1012.3 |
| 20260905120344 | 76 | 103 | 2.0 | 7.0 | 0.00 | 0.00 | 0.00 | 94 | 1012.1 |
| 20260905120245 | 76 | 112 | 1.0 | 7.0 | 0.00 | 0.00 | 0.00 | 94 | 1012.1 |
| 20260905115343 | 76 | 241 | 1.0 | 2.0 | 0.00 | 0.00 | 0.00 | 94 | 1012.0 |
| 20260905114343 | 75 | 241 | 1.0 | 1.0 | 0.00 | 0.00 | 0.00 | 94 | 1011.9 |
| 20260905113344 | 76 | 241 | 0.0 | 1.0 | 0.00 | 0.00 | 0.00 | 94 | 1011.9 |
| 20260905113243 | 76 | 241 | 0.0 | 1.0 | 0.00 | 0.00 | 0.00 | 94 | 1011.9 |
| 20260905112343 | 76 | 241 | 0.0 | 1.0 | 0.00 | 0.00 | 0.00 | 94 | 1011.7 |
| 20260905112244 | 76 | 241 | 0.0 | 1.0 | 0.00 | 0.00 | 0.00 | 94 | 1011.7 |
| 20260905111343 | 76 | 241 | 0.0 | 1.0 | 0.00 | 0.00 | 0.00 | 94 | 1011.6 |
| 20260905111244 | 76 | 241 | 0.0 | 1.0 | 0.00 | 0.00 | 0.00 | 94 | 1011.5 |
| 20260905110344 | 76 | 241 | 0.0 | 1.0 | 0.00 | 0.00 | 0.00 | 94 | 1011.4 |
| 20260905110243 | 76 | 241 | 0.0 | 1.0 | 0.00 | 0.00 | 0.00 | 94 | 1011.4 |
| 20260905105343 | 76 | 241 | 0.0 | 1.0 | 0.00 | 0.00 | 0.00 | 94 | 1011.3 |
| 20260905104343 | 76 | 241 | 0.0 | 1.0 | 0.00 | 0.00 | 0.00 | 94 | 1011.4 |
| 20260905104243 | 76 | 241 | 0.0 | 1.0 | 0.00 | 0.00 | 0.00 | 94 | 1011.4 |
| 20260905103343 | 76 | 241 | 0.0 | 1.0 | 0.00 | 0.00 | 0.00 | 94 | 1011.4 |
| 20260905102343 | 76 | 241 | 0.0 | 1.0 | 0.00 | 0.00 | 0.00 | 94 | 1011.3 |
| 20260905102244 | 76 | 241 | 0.0 | 1.0 | 0.00 | 0.00 | 0.00 | 94 | 1011.4 |
| 20260905101343 | 76 | 241 | 0.0 | 1.0 | 0.00 | 0.00 | 0.00 | 94 | 1011.3 |
| 20260905101244 | 76 | 241 | 0.0 | 1.0 | 0.00 | 0.00 | 0.00 | 94 | 1011.3 |
| 20260905100344 | 76 | 241 | 0.0 | 1.0 | 0.00 | 0.00 | 0.00 | 93 | 1011.5 |
| 20260905095343 | 76 | 241 | 0.0 | 1.0 | 0.00 | 0.00 | 0.00 | 93 | 1011.6 |
| 20260905094343 | 76 | 241 | 0.0 | 1.0 | 0.00 | 0.00 | 0.00 | 93 | 1011.6 |
| 20260905093344 | 76 | 241 | 0.0 | 1.0 | 0.00 | 0.00 | 0.00 | 92 | 1011.7 |
| 20260905092344 | 76 | 241 | 0.0 | 1.0 | 0.00 | 0.00 | 0.00 | 92 | 1011.6 |
| 20260905091343 | 77 | 241 | 0.0 | 1.0 | 0.00 | 0.00 | 0.00 | 92 | 1011.5 |
| 20260905090344 | 77 | 241 | 0.0 | 1.0 | 0.00 | 0.00 | 0.00 | 91 | 1011.5 |
| 20260905090244 | 77 | 241 | 0.0 | 1.0 | 0.00 | 0.00 | 0.00 | 91 | 1011.5 |
| 20260905085344 | 77 | 241 | 0.0 | 1.0 | 0.00 | 0.00 | 0.00 | 91 | 1011.5 |
| 20260905084343 | 77 | 241 | 0.0 | 1.0 | 0.00 | 0.00 | 0.00 | 91 | 1011.6 |
| 20260905083343 | 78 | 241 | 0.0 | 1.0 | 0.00 | 0.00 | 0.00 | 91 | 1011.5 |
| 20260905082344 | 78 | 241 | 0.0 | 1.0 | 0.00 | 0.00 | 0.00 | 91 | 1011.5 |
| 20260905082243 | 78 | 241 | 0.0 | 1.0 | 0.00 | 0.00 | 0.00 | 91 | 1011.4 |
| 20260905081344 | 78 | 241 | 0.0 | 1.0 | 0.00 | 0.00 | 0.00 | 91 | 1011.3 |
| 20260905080344 | 78 | 241 | 0.0 | 1.0 | 0.00 | 0.00 | 0.00 | 90 | 1011.2 |
| 20260905075343 | 78 | 241 | 0.0 | 1.0 | 0.00 | 0.00 | 0.00 | 90 | 1011.1 |
| 20260905074343 | 78 | 241 | 0.0 | 1.0 | 0.00 | 0.00 | 0.00 | 90 | 1011.0 |
| 20260905073344 | 78 | 241 | 0.0 | 1.0 | 0.00 | 0.00 | 0.00 | 90 | 1010.9 |
| 20260905072344 | 78 | 241 | 0.0 | 1.0 | 0.00 | 0.00 | 0.00 | 91 | 1010.8 |
| 20260905071343 | 78 | 241 | 0.0 | 1.0 | 0.00 | 0.00 | 0.00 | 91 | 1010.9 |
| 20260905070344 | 78 | 241 | 0.0 | 1.0 | 0.00 | 0.00 | 0.00 | 92 | 1010.8 |
| 20260905065344 | 78 | 241 | 0.0 | 1.0 | 0.00 | 0.00 | 0.00 | 92 | 1010.9 |
| 20260905064344 | 78 | 241 | 0.0 | 1.0 | 0.00 | 0.00 | 0.00 | 91 | 1011.0 |
| 20260905064244 | 78 | 241 | 0.0 | 1.0 | 0.00 | 0.00 | 0.00 | 92 | 1011.1 |
| 20260905063343 | 78 | 241 | 0.0 | 1.0 | 0.00 | 0.00 | 0.00 | 91 | 1011.1 |
| 20260905062343 | 78 | 241 | 0.0 | 1.0 | 0.00 | 0.00 | 0.00 | 91 | 1011.4 |
| 20260905061343 | 78 | 241 | 0.0 | 1.0 | 0.00 | 0.00 | 0.00 | 91 | 1011.5 |
| 20260905061244 | 78 | 241 | 0.0 | 1.0 | 0.00 | 0.00 | 0.00 | 91 | 1011.5 |
| 20260905060343 | 78 | 241 | 0.0 | 1.0 | 0.00 | 0.00 | 0.00 | 91 | 1011.7 |
| 20260905055343 | 78 | 241 | 0.0 | 1.0 | 0.00 | 0.00 | 0.00 | 91 | 1011.8 |
| 20260905055244 | 78 | 241 | 0.0 | 1.0 | 0.00 | 0.00 | 0.00 | 91 | 1011.8 |
| 20260905054344 | 78 | 241 | 0.0 | 1.0 | 0.00 | 0.00 | 0.00 | 91 | 1011.8 |
| 20260905053343 | 78 | 241 | 0.0 | 1.0 | 0.00 | 0.00 | 0.00 | 90 | 1011.8 |
| 20260905052343 | 78 | 241 | 0.0 | 1.0 | 0.00 | 0.00 | 0.00 | 90 | 1011.9 |
| 20260905051344 | 78 | 241 | 0.0 | 1.0 | 0.00 | 0.00 | 0.00 | 89 | 1012.1 |
| 20260905051243 | 78 | 241 | 0.0 | 1.0 | 0.00 | 0.00 | 0.00 | 89 | 1012.0 |
| 20260905050342 | 79 | 241 | 0.0 | 1.0 | 0.00 | 0.00 | 0.00 | 89 | 1012.2 |
| 20260905045343 | 79 | 241 | 0.0 | 1.0 | 0.00 | 0.00 | 0.00 | 89 | 1012.1 |
| 20260905044344 | 79 | 241 | 0.0 | 1.0 | 0.00 | 0.00 | 0.00 | 89 | 1012.1 |
| 20260905043343 | 79 | 241 | 0.0 | 1.0 | 0.00 | 0.00 | 0.00 | 88 | 1012.1 |
| 20260905042344 | 80 | 241 | 0.0 | 0.0 | 0.00 | 0.00 | 0.00 | 88 | 1012.1 |
| 20260905041343 | 80 | 241 | 0.0 | 0.0 | 0.00 | 0.00 | 0.00 | 87 | 1012.1 |
| 20260905040342 | 80 | 241 | 0.0 | 0.0 | 0.00 | 0.00 | 0.00 | 87 | 1012.2 |
| 20260905040243 | 80 | 241 | 0.0 | 0.0 | 0.00 | 0.00 | 0.00 | 86 | 1012.3 |
| 20260905035344 | 80 | 241 | 0.0 | 9.0 | 0.00 | 0.00 | 0.00 | 86 | 1012.3 |
| 20260905034344 | 81 | 241 | 0.0 | 9.0 | 0.00 | 0.00 | 0.00 | 85 | 1012.3 |
| 20260905033344 | 81 | 241 | 0.0 | 9.0 | 0.00 | 0.00 | 0.00 | 85 | 1012.2 |
| 20260905032343 | 81 | 241 | 0.0 | 9.0 | 0.00 | 0.00 | 0.00 | 84 | 1012.2 |
| 20260905031342 | 82 | 241 | 0.0 | 9.0 | 0.00 | 0.00 | 0.00 | 83 | 1012.3 |
| 20260905030342 | 82 | 241 | 0.0 | 9.0 | 0.00 | 0.00 | 0.00 | 83 | 1012.2 |
| 20260905025344 | 82 | 241 | 0.0 | 9.0 | 0.00 | 0.00 | 0.00 | 82 | 1012.2 |
| 20260905024343 | 83 | 241 | 0.0 | 9.0 | 0.00 | 0.00 | 0.00 | 82 | 1012.2 |
| 20260905024244 | 83 | 241 | 0.0 | 9.0 | 0.00 | 0.00 | 0.00 | 82 | 1012.2 |
| 20260905023342 | 83 | 241 | 0.0 | 9.0 | 0.00 | 0.00 | 0.00 | 81 | 1012.1 |
| 20260905022344 | 84 | 241 | 0.0 | 9.0 | 0.00 | 0.00 | 0.00 | 80 | 1012.0 |
| 20260905021344 | 84 | 241 | 0.0 | 9.0 | 0.00 | 0.00 | 0.00 | 79 | 1011.9 |
| 20260905020343 | 85 | 241 | 0.0 | 9.0 | 0.00 | 0.00 | 0.00 | 78 | 1011.9 |
| 20260905015342 | 85 | 241 | 0.0 | 9.0 | 0.00 | 0.00 | 0.00 | 76 | 1011.9 |
| 20260905015243 | 85 | 241 | 0.0 | 9.0 | 0.00 | 0.00 | 0.00 | 76 | 1011.8 |
| 20260905014343 | 86 | 241 | 0.0 | 9.0 | 0.00 | 0.00 | 0.00 | 76 | 1011.7 |
| 20260905013344 | 86 | 241 | 0.0 | 9.0 | 0.00 | 0.00 | 0.00 | 74 | 1011.6 |
| 20260905012345 | 87 | 241 | 0.0 | 9.0 | 0.00 | 0.00 | 0.00 | 73 | 1011.7 |
| 20260905011344 | 87 | 241 | 0.0 | 9.0 | 0.00 | 0.00 | 0.00 | 73 | 1011.6 |
| 20260905010345 | 87 | 241 | 0.0 | 9.0 | 0.00 | 0.00 | 0.00 | 73 | 1011.5 |
| 20260905010245 | 87 | 241 | 0.0 | 9.0 | 0.00 | 0.00 | 0.00 | 73 | 1011.5 |
| 20260905005345 | 87 | 241 | 0.0 | 9.0 | 0.00 | 0.00 | 0.00 | 73 | 1011.5 |
| 20260905004344 | 88 | 241 | 0.0 | 9.0 | 0.00 | 0.00 | 0.00 | 72 | 1011.5 |
| 20260905003346 | 88 | 241 | 0.0 | 9.0 | 0.00 | 0.00 | 0.00 | 71 | 1011.5 |
| 20260905002345 | 89 | 241 | 0.0 | 9.0 | 0.00 | 0.00 | 0.00 | 70 | 1011.5 |
| 20260905001344 | 90 | 241 | 0.0 | 9.0 | 0.00 | 0.00 | 0.00 | 68 | 1011.6 |
| 20260905001247 | 90 | 241 | 0.0 | 9.0 | 0.00 | 0.00 | 0.00 | 68 | 1011.6 |
| 20260905000344 | 90 | 241 | 0.0 | 9.0 | 0.00 | 0.00 | 0.00 | 67 | 1011.6 |
| 20260905000245 | 90 | 241 | 0.0 | 9.0 | 0.00 | 0.00 | 0.00 | 67 | 1011.6 |
| 20260904235345 | 91 | 241 | 0.0 | 9.0 | 0.00 | 0.00 | 0.00 | 66 | 1011.5 |
| 20260904234344 | 92 | 241 | 0.0 | 9.0 | 0.00 | 0.00 | 0.00 | 64 | 1011.6 |
| 20260904233344 | 92 | 241 | 0.0 | 9.0 | 0.00 | 0.00 | 0.00 | 63 | 1011.5 |
| 20260904232343 | 93 | 241 | 0.0 | 9.0 | 0.00 | 0.00 | 0.00 | 62 | 1011.4 |
| 20260904231344 | 93 | 178 | 0.0 | 9.0 | 0.00 | 0.00 | 0.00 | 61 | 1011.2 |
| 20260904231245 | 93 | 178 | 0.0 | 9.0 | 0.00 | 0.00 | 0.00 | 60 | 1011.2 |
| 20260904230344 | 93 | 270 | 0.0 | 9.0 | 0.00 | 0.00 | 0.00 | 59 | 1011.2 |
| 20260904225344 | 94 | 321 | 1.0 | 9.0 | 0.00 | 0.00 | 0.00 | 60 | 1011.2 |
| 20260904225245 | 94 | 321 | 1.0 | 9.0 | 0.00 | 0.00 | 0.00 | 60 | 1011.2 |
| 20260904224345 | 94 | 251 | 1.0 | 9.0 | 0.00 | 0.00 | 0.00 | 59 | 1011.2 |
| 20260904223345 | 94 | 290 | 1.0 | 9.0 | 0.00 | 0.00 | 0.00 | 59 | 1011.1 |
| 20260904222345 | 94 | 273 | 1.0 | 9.0 | 0.00 | 0.00 | 0.00 | 59 | 1011.0 |
| 20260904221345 | 94 | 219 | 1.0 | 9.0 | 0.00 | 0.00 | 0.00 | 58 | 1011.1 |
| 20260904220345 | 94 | 300 | 1.0 | 9.0 | 0.00 | 0.00 | 0.00 | 60 | 1011.1 |
| 20260904220247 | 94 | 300 | 0.0 | 9.0 | 0.00 | 0.00 | 0.00 | 60 | 1011.1 |
| 20260904215344 | 94 | 263 | 0.0 | 9.0 | 0.00 | 0.00 | 0.00 | 59 | 1011.1 |
| 20260904215245 | 94 | 262 | 0.0 | 9.0 | 0.00 | 0.00 | 0.00 | 60 | 1011.1 |